| time (UTC) | temp F | wind direction | speed MPH | gust MPH | rain 1hr in | rain 24hr in | rain mn in | humidity % | barometer mb |
| 20260905231606 | 71 | 142 | 0.0 | 1.0 | 0.00 | 0.00 | 0.00 | 82 | 1011.0 |
| 20260905231106 | 71 | 142 | 0.0 | 1.0 | 0.00 | 0.00 | 0.00 | 81 | 1010.9 |
| 20260905230606 | 71 | 142 | 0.0 | 0.0 | 0.00 | 0.00 | 0.00 | 81 | 1010.9 |
| 20260905230106 | 72 | 142 | 1.0 | 2.0 | 0.00 | 0.00 | 0.00 | 81 | 1010.9 |
| 20260905225606 | 72 | 142 | 1.0 | 1.0 | 0.00 | 0.00 | 0.00 | 81 | 1010.8 |
| 20260905225106 | 72 | 142 | 1.0 | 2.0 | 0.00 | 0.00 | 0.00 | 81 | 1010.7 |
| 20260905224606 | 72 | 142 | 1.0 | 2.0 | 0.00 | 0.00 | 0.00 | 80 | 1010.7 |
| 20260905224105 | 73 | 142 | 0.0 | 1.0 | 0.00 | 0.00 | 0.00 | 79 | 1010.7 |
| 20260905223106 | 74 | 142 | 1.0 | 2.0 | 0.00 | 0.00 | 0.00 | 78 | 1010.9 |
| 20260905222606 | 74 | 142 | 1.0 | 2.0 | 0.00 | 0.00 | 0.00 | 77 | 1010.8 |
| 20260905222106 | 74 | 142 | 1.0 | 1.0 | 0.00 | 0.00 | 0.00 | 77 | 1010.6 |
| 20260905221606 | 75 | 142 | 0.0 | 1.0 | 0.00 | 0.00 | 0.00 | 76 | 1010.6 |
| 20260905221106 | 75 | 142 | 0.0 | 2.0 | 0.00 | 0.00 | 0.00 | 74 | 1010.6 |
| 20260905220606 | 75 | 142 | 0.0 | 0.0 | 0.00 | 0.00 | 0.00 | 74 | 1010.5 |
| 20260905220106 | 76 | 142 | 0.0 | 2.0 | 0.00 | 0.00 | 0.00 | 73 | 1010.5 |
| 20260905215605 | 76 | 142 | 1.0 | 2.0 | 0.00 | 0.00 | 0.00 | 73 | 1010.6 |
| 20260905215106 | 76 | 142 | 0.0 | 1.0 | 0.00 | 0.00 | 0.00 | 71 | 1010.5 |
| 20260905214605 | 77 | 142 | 0.0 | 3.0 | 0.00 | 0.00 | 0.00 | 71 | 1010.4 |
| 20260905214106 | 77 | 141 | 1.0 | 2.0 | 0.00 | 0.00 | 0.00 | 70 | 1010.3 |
| 20260905213606 | 77 | 141 | 0.0 | 2.0 | 0.00 | 0.00 | 0.00 | 68 | 1010.2 |
| 20260905213106 | 78 | 141 | 1.0 | 3.0 | 0.00 | 0.00 | 0.00 | 66 | 1010.2 |
| 20260905212605 | 78 | 240 | 1.0 | 2.0 | 0.00 | 0.00 | 0.00 | 66 | 1010.2 |
| 20260905212108 | 78 | 240 | 0.0 | 5.0 | 0.00 | 0.00 | 0.00 | 64 | 1010.1 |
| 20260905211606 | 79 | 250 | 2.0 | 3.0 | 0.00 | 0.00 | 0.00 | 65 | 1010.1 |
| 20260905211105 | 79 | 232 | 0.0 | 1.0 | 0.00 | 0.00 | 0.00 | 68 | 1010.0 |
| 20260905210606 | 79 | 240 | 1.0 | 2.0 | 0.00 | 0.00 | 0.00 | 64 | 1009.8 |
| 20260905205605 | 79 | 161 | 1.0 | 3.0 | 0.00 | 0.00 | 0.00 | 63 | 1009.9 |
| 20260905205106 | 79 | 241 | 1.0 | 3.0 | 0.00 | 0.00 | 0.00 | 61 | 1009.9 |
| 20260905204606 | 79 | 240 | 1.0 | 3.0 | 0.00 | 0.00 | 0.00 | 64 | 1009.8 |
| 20260905203606 | 78 | 240 | 1.0 | 3.0 | 0.00 | 0.00 | 0.00 | 61 | 1009.7 |
| 20260905203106 | 78 | 239 | 1.0 | 3.0 | 0.00 | 0.00 | 0.00 | 62 | 1009.8 |
| 20260905202605 | 78 | 115 | 2.0 | 8.0 | 0.00 | 0.00 | 0.00 | 64 | 1009.8 |
| 20260905202106 | 78 | 339 | 3.0 | 5.0 | 0.00 | 0.00 | 0.00 | 63 | 1009.9 |
| 20260905201605 | 78 | 191 | 1.0 | 3.0 | 0.00 | 0.00 | 0.00 | 64 | 1009.9 |
| 20260905201105 | 78 | 142 | 2.0 | 5.0 | 0.00 | 0.00 | 0.00 | 65 | 1009.8 |
| 20260905200605 | 78 | 217 | 2.0 | 3.0 | 0.00 | 0.00 | 0.00 | 65 | 1009.9 |
| 20260905200106 | 78 | 140 | 2.0 | 5.0 | 0.00 | 0.00 | 0.00 | 66 | 1009.8 |
| 20260905195607 | 78 | 247 | 2.0 | 3.0 | 0.00 | 0.00 | 0.00 | 60 | 1009.8 |
| 20260905195106 | 79 | 244 | 2.0 | 3.0 | 0.00 | 0.00 | 0.00 | 63 | 1009.9 |
| 20260905194606 | 79 | 246 | 2.0 | 8.0 | 0.00 | 0.00 | 0.00 | 63 | 1009.9 |
| 20260905193605 | 79 | 242 | 2.0 | 9.0 | 0.00 | 0.00 | 0.00 | 62 | 1009.8 |
| 20260905192606 | 78 | 174 | 3.0 | 6.0 | 0.00 | 0.00 | 0.00 | 67 | 1009.8 |
| 20260905192105 | 78 | 257 | 1.0 | 3.0 | 0.00 | 0.00 | 0.00 | 65 | 1009.8 |
| 20260905191605 | 78 | 243 | 1.0 | 3.0 | 0.00 | 0.00 | 0.00 | 63 | 1009.9 |
| 20260905191106 | 78 | 240 | 1.0 | 3.0 | 0.00 | 0.00 | 0.00 | 63 | 1010.0 |
| 20260905190606 | 78 | 138 | 1.0 | 5.0 | 0.00 | 0.00 | 0.00 | 62 | 1010.0 |
| 20260905190106 | 78 | 141 | 2.0 | 5.0 | 0.00 | 0.00 | 0.00 | 64 | 1009.9 |
| 20260905185605 | 77 | 142 | 2.0 | 5.0 | 0.00 | 0.00 | 0.00 | 68 | 1010.0 |
| 20260905184606 | 76 | 259 | 1.0 | 3.0 | 0.00 | 0.00 | 0.00 | 70 | 1010.0 |
| 20260905184106 | 76 | 245 | 1.0 | 2.0 | 0.00 | 0.00 | 0.00 | 69 | 1010.0 |
| 20260905183105 | 76 | 247 | 1.0 | 3.0 | 0.00 | 0.00 | 0.00 | 68 | 1010.0 |
| 20260905182606 | 77 | 246 | 2.0 | 3.0 | 0.00 | 0.00 | 0.00 | 67 | 1010.0 |
| 20260905182105 | 77 | 172 | 2.0 | 8.0 | 0.00 | 0.00 | 0.00 | 66 | 1010.1 |
| 20260905181606 | 77 | 245 | 1.0 | 5.0 | 0.00 | 0.00 | 0.00 | 66 | 1010.0 |
| 20260905181105 | 77 | 185 | 2.0 | 6.0 | 0.00 | 0.00 | 0.00 | 65 | 1010.1 |
| 20260905180605 | 77 | 243 | 1.0 | 2.0 | 0.00 | 0.00 | 0.00 | 67 | 1010.1 |
| 20260905180106 | 77 | 240 | 2.0 | 3.0 | 0.00 | 0.00 | 0.00 | 65 | 1010.2 |
| 20260905175606 | 78 | 141 | 3.0 | 6.0 | 0.00 | 0.00 | 0.00 | 63 | 1010.2 |
| 20260905174606 | 78 | 142 | 3.0 | 7.0 | 0.00 | 0.00 | 0.00 | 61 | 1010.1 |
| 20260905174106 | 78 | 179 | 2.0 | 5.0 | 0.00 | 0.00 | 0.00 | 62 | 1010.1 |
| 20260905173606 | 78 | 250 | 3.0 | 9.0 | 0.00 | 0.00 | 0.00 | 65 | 1010.0 |
| 20260905173106 | 78 | 240 | 2.0 | 5.0 | 0.00 | 0.00 | 0.00 | 64 | 1010.1 |
| 20260905172106 | 78 | 243 | 3.0 | 5.0 | 0.00 | 0.00 | 0.00 | 62 | 1010.0 |
| 20260905171605 | 78 | 243 | 2.0 | 6.0 | 0.00 | 0.00 | 0.00 | 62 | 1010.1 |
| 20260905171106 | 78 | 244 | 2.0 | 8.0 | 0.00 | 0.00 | 0.00 | 64 | 1010.1 |
| 20260905170605 | 78 | 249 | 2.0 | 5.0 | 0.00 | 0.00 | 0.00 | 62 | 1010.1 |
| 20260905170106 | 78 | 237 | 2.0 | 5.0 | 0.00 | 0.00 | 0.00 | 64 | 1010.0 |
| 20260905165605 | 78 | 199 | 3.0 | 6.0 | 0.00 | 0.00 | 0.00 | 63 | 1010.1 |
| 20260905165105 | 78 | 209 | 1.0 | 3.0 | 0.00 | 0.00 | 0.00 | 64 | 1010.1 |
| 20260905164605 | 78 | 242 | 2.0 | 5.0 | 0.00 | 0.00 | 0.00 | 63 | 1010.1 |
| 20260905163105 | 77 | 157 | 5.0 | 10.0 | 0.00 | 0.00 | 0.00 | 65 | 1010.1 |
| 20260905162606 | 78 | 166 | 5.0 | 9.0 | 0.00 | 0.00 | 0.00 | 64 | 1010.1 |
| 20260905162106 | 78 | 230 | 1.0 | 8.0 | 0.00 | 0.00 | 0.00 | 63 | 1010.1 |
| 20260905161606 | 78 | 178 | 2.0 | 3.0 | 0.00 | 0.00 | 0.00 | 63 | 1010.0 |
| 20260905161106 | 78 | 239 | 4.0 | 8.0 | 0.00 | 0.00 | 0.00 | 61 | 1010.1 |
| 20260905160605 | 78 | 246 | 4.0 | 9.0 | 0.00 | 0.00 | 0.00 | 62 | 1010.0 |
| 20260905160106 | 78 | 150 | 3.0 | 8.0 | 0.00 | 0.00 | 0.00 | 64 | 1010.0 |
| 20260905155606 | 78 | 237 | 2.0 | 7.0 | 0.00 | 0.00 | 0.00 | 61 | 1010.0 |
| 20260905155105 | 78 | 159 | 2.0 | 6.0 | 0.00 | 0.00 | 0.00 | 67 | 1010.0 |
| 20260905154605 | 78 | 248 | 3.0 | 12.0 | 0.00 | 0.00 | 0.00 | 63 | 1010.0 |
| 20260905154107 | 78 | 165 | 4.0 | 10.0 | 0.00 | 0.00 | 0.00 | 62 | 1010.2 |
| 20260905153605 | 78 | 252 | 2.0 | 10.0 | 0.00 | 0.00 | 0.00 | 64 | 1010.2 |
| 20260905153105 | 78 | 221 | 2.0 | 10.0 | 0.00 | 0.00 | 0.00 | 67 | 1010.2 |
| 20260905152105 | 77 | 219 | 2.0 | 5.0 | 0.00 | 0.00 | 0.00 | 65 | 1010.2 |
| 20260905151605 | 77 | 220 | 2.0 | 8.0 | 0.00 | 0.00 | 0.00 | 66 | 1010.2 |
| 20260905151106 | 76 | 168 | 3.0 | 8.0 | 0.00 | 0.00 | 0.00 | 66 | 1010.1 |
| 20260905150605 | 76 | 159 | 4.0 | 10.0 | 0.00 | 0.00 | 0.00 | 66 | 1010.2 |
| 20260905150105 | 76 | 213 | 3.0 | 10.0 | 0.00 | 0.00 | 0.00 | 66 | 1010.3 |
| 20260905145605 | 76 | 150 | 4.0 | 8.0 | 0.00 | 0.00 | 0.00 | 67 | 1010.4 |
| 20260905145105 | 76 | 144 | 3.0 | 10.0 | 0.00 | 0.00 | 0.00 | 66 | 1010.3 |
| 20260905144606 | 76 | 166 | 5.0 | 10.0 | 0.00 | 0.00 | 0.00 | 67 | 1010.2 |
| 20260905144106 | 75 | 149 | 3.0 | 7.0 | 0.00 | 0.00 | 0.00 | 69 | 1010.2 |
| 20260905143605 | 75 | 167 | 3.0 | 10.0 | 0.00 | 0.00 | 0.00 | 71 | 1010.1 |
| 20260905143106 | 75 | 166 | 2.0 | 9.0 | 0.00 | 0.00 | 0.00 | 71 | 1010.0 |
| 20260905142606 | 75 | 205 | 3.0 | 10.0 | 0.00 | 0.00 | 0.00 | 69 | 1010.0 |
| 20260905142106 | 74 | 154 | 3.0 | 5.0 | 0.00 | 0.00 | 0.00 | 73 | 1010.0 |
| 20260905141605 | 74 | 222 | 3.0 | 5.0 | 0.00 | 0.00 | 0.00 | 74 | 1010.0 |
| 20260905140605 | 73 | 221 | 0.0 | 3.0 | 0.00 | 0.00 | 0.00 | 76 | 1010.1 |
| 20260905140106 | 73 | 169 | 0.0 | 3.0 | 0.00 | 0.00 | 0.00 | 76 | 1010.2 |
| 20260905135606 | 73 | 148 | 1.0 | 3.0 | 0.00 | 0.00 | 0.00 | 77 | 1010.2 |
| 20260905135107 | 73 | 142 | 1.0 | 3.0 | 0.00 | 0.00 | 0.00 | 76 | 1010.3 |
| 20260905134106 | 73 | 244 | 2.0 | 5.0 | 0.00 | 0.00 | 0.00 | 73 | 1010.4 |
| 20260905133106 | 72 | 143 | 3.0 | 9.0 | 0.00 | 0.00 | 0.00 | 74 | 1010.4 |
| 20260905132606 | 72 | 238 | 1.0 | 3.0 | 0.00 | 0.00 | 0.00 | 75 | 1010.4 |
| 20260905131605 | 71 | 259 | 3.0 | 8.0 | 0.00 | 0.00 | 0.00 | 78 | 1010.4 |
| 20260905130605 | 70 | 249 | 3.0 | 5.0 | 0.00 | 0.00 | 0.00 | 82 | 1010.4 |
| 20260905130105 | 70 | 140 | 2.0 | 5.0 | 0.00 | 0.00 | 0.00 | 83 | 1010.4 |
| 20260905125606 | 69 | 245 | 4.0 | 9.0 | 0.00 | 0.00 | 0.00 | 84 | 1010.4 |
| 20260905125105 | 68 | 155 | 3.0 | 7.0 | 0.00 | 0.00 | 0.00 | 88 | 1010.5 |
| 20260905124605 | 67 | 155 | 2.0 | 6.0 | 0.00 | 0.00 | 0.00 | 92 | 1010.6 |
| 20260905124106 | 66 | 359 | 4.0 | 9.0 | 0.00 | 0.00 | 0.00 | 92 | 1010.6 |
| 20260905123605 | 66 | 225 | 2.0 | 5.0 | 0.00 | 0.00 | 0.00 | 95 | 1010.7 |
| 20260905123106 | 65 | 140 | 2.0 | 5.0 | 0.00 | 0.00 | 0.00 | 96 | 1010.7 |
| 20260905122105 | 64 | 142 | 2.0 | 5.0 | 0.00 | 0.00 | 0.00 | 96 | 1010.7 |
| 20260905121105 | 63 | 143 | 1.0 | 2.0 | 0.00 | 0.00 | 0.00 | 96 | 1010.7 |
| 20260905120605 | 63 | 160 | 1.0 | 3.0 | 0.00 | 0.00 | 0.00 | 96 | 1010.7 |
| 20260905115105 | 62 | 143 | 0.0 | 1.0 | 0.00 | 0.00 | 0.00 | 96 | 1010.6 |
| 20260905114606 | 62 | 143 | 0.0 | 1.0 | 0.00 | 0.00 | 0.00 | 96 | 1010.5 |
| 20260905114105 | 62 | 143 | 0.0 | 1.0 | 0.00 | 0.00 | 0.00 | 96 | 1010.4 |
| 20260905113105 | 62 | 143 | 0.0 | 2.0 | 0.00 | 0.00 | 0.00 | 96 | 1010.3 |
| 20260905112605 | 61 | 0 | 0.0 | 1.0 | 0.00 | 0.00 | 0.00 | 96 | 1010.3 |
| 20260905112106 | 61 | 356 | 1.0 | 3.0 | 0.00 | 0.00 | 0.00 | 96 | 1010.3 |
| 20260905111605 | 61 | 244 | 1.0 | 3.0 | 0.00 | 0.00 | 0.00 | 95 | 1010.2 |
| 20260905111105 | 61 | 265 | 0.0 | 2.0 | 0.00 | 0.00 | 0.00 | 95 | 1010.1 |
| 20260905110605 | 61 | 0 | 1.0 | 1.0 | 0.00 | 0.00 | 0.00 | 94 | 1010.1 |
| 20260905110106 | 60 | 0 | 1.0 | 2.0 | 0.00 | 0.00 | 0.00 | 94 | 1010.1 |
| 20260905105605 | 60 | 239 | 1.0 | 3.0 | 0.00 | 0.00 | 0.00 | 94 | 1010.0 |
| 20260905105105 | 60 | 239 | 0.0 | 0.0 | 0.00 | 0.00 | 0.00 | 94 | 1010.0 |
| 20260905104605 | 60 | 239 | 0.0 | 0.0 | 0.00 | 0.00 | 0.00 | 94 | 1010.0 |
| 20260905102605 | 61 | 239 | 0.0 | 0.0 | 0.00 | 0.00 | 0.00 | 94 | 1009.9 |
| 20260905102105 | 61 | 239 | 0.0 | 0.0 | 0.00 | 0.00 | 0.00 | 94 | 1009.9 |
| 20260905101605 | 61 | 239 | 0.0 | 0.0 | 0.00 | 0.00 | 0.00 | 93 | 1009.8 |
| 20260905101105 | 61 | 239 | 0.0 | 0.0 | 0.00 | 0.00 | 0.00 | 93 | 1009.7 |
| 20260905100605 | 61 | 239 | 0.0 | 0.0 | 0.00 | 0.00 | 0.00 | 93 | 1009.7 |
| 20260905100105 | 61 | 239 | 0.0 | 0.0 | 0.00 | 0.00 | 0.00 | 93 | 1009.7 |
| 20260905095606 | 61 | 239 | 0.0 | 0.0 | 0.00 | 0.00 | 0.00 | 93 | 1009.7 |
| 20260905095106 | 61 | 239 | 0.0 | 0.0 | 0.00 | 0.00 | 0.00 | 93 | 1009.6 |
| 20260905094606 | 61 | 239 | 0.0 | 0.0 | 0.00 | 0.00 | 0.00 | 93 | 1009.6 |
| 20260905093605 | 61 | 239 | 0.0 | 1.0 | 0.00 | 0.00 | 0.00 | 93 | 1009.4 |
| 20260905093106 | 61 | 239 | 0.0 | 1.0 | 0.00 | 0.00 | 0.00 | 93 | 1009.4 |
| 20260905092605 | 61 | 239 | 0.0 | 0.0 | 0.00 | 0.00 | 0.00 | 92 | 1009.4 |
| 20260905092105 | 61 | 239 | 0.0 | 1.0 | 0.00 | 0.00 | 0.00 | 92 | 1009.4 |
| 20260905091618 | 61 | 239 | 0.0 | 1.0 | 0.00 | 0.00 | 0.00 | 92 | 1009.4 |
| 20260905091105 | 62 | 239 | 0.0 | 1.0 | 0.00 | 0.00 | 0.00 | 92 | 1009.4 |
| 20260905090605 | 62 | 239 | 0.0 | 1.0 | 0.00 | 0.00 | 0.00 | 91 | 1009.4 |
| 20260905085605 | 62 | 239 | 0.0 | 1.0 | 0.00 | 0.00 | 0.00 | 91 | 1009.5 |
| 20260905084605 | 62 | 239 | 0.0 | 1.0 | 0.00 | 0.01 | 0.00 | 91 | 1009.5 |
| 20260905084105 | 62 | 239 | 0.0 | 1.0 | 0.00 | 0.01 | 0.00 | 90 | 1009.5 |
| 20260905083605 | 62 | 239 | 0.0 | 0.0 | 0.00 | 0.02 | 0.00 | 90 | 1009.5 |
| 20260905083105 | 62 | 239 | 0.0 | 1.0 | 0.00 | 0.02 | 0.00 | 90 | 1009.5 |
| 20260905082605 | 63 | 239 | 0.0 | 1.0 | 0.00 | 0.04 | 0.00 | 90 | 1009.6 |
| 20260905082105 | 63 | 239 | 0.0 | 1.0 | 0.00 | 0.06 | 0.00 | 89 | 1009.5 |
| 20260905081605 | 63 | 239 | 0.0 | 0.0 | 0.00 | 0.22 | 0.00 | 89 | 1009.6 |
| 20260905081105 | 63 | 239 | 0.0 | 1.0 | 0.00 | 0.42 | 0.00 | 89 | 1009.6 |
| 20260905080605 | 63 | 239 | 0.0 | 1.0 | 0.00 | 0.56 | 0.00 | 89 | 1009.5 |
| 20260905080105 | 63 | 239 | 0.0 | 1.0 | 0.00 | 0.64 | 0.00 | 89 | 1009.4 |
| 20260905075605 | 64 | 239 | 0.0 | 1.0 | 0.00 | 0.65 | 0.00 | 89 | 1009.4 |
| 20260905075105 | 64 | 239 | 0.0 | 1.0 | 0.00 | 0.65 | 0.00 | 89 | 1009.4 |
| 20260905074605 | 64 | 239 | 0.0 | 2.0 | 0.00 | 0.66 | 0.00 | 89 | 1009.4 |
| 20260905073105 | 64 | 239 | 0.0 | 1.0 | 0.00 | 0.66 | 0.00 | 89 | 1009.4 |
| 20260905072104 | 64 | 239 | 1.0 | 3.0 | 0.00 | 0.66 | 0.00 | 89 | 1009.4 |
| 20260905071105 | 64 | 143 | 0.0 | 2.0 | 0.00 | 0.66 | 0.00 | 88 | 1009.4 |
| 20260905070605 | 64 | 143 | 2.0 | 5.0 | 0.00 | 0.66 | 0.00 | 89 | 1009.4 |
| 20260905065605 | 64 | 136 | 1.0 | 3.0 | 0.00 | 0.66 | 0.00 | 89 | 1009.5 |
| 20260905065105 | 64 | 143 | 1.0 | 3.0 | 0.00 | 0.66 | 0.00 | 89 | 1009.5 |
| 20260905064605 | 64 | 143 | 0.0 | 3.0 | 0.00 | 0.66 | 0.00 | 90 | 1009.5 |
| 20260905064105 | 64 | 142 | 1.0 | 2.0 | 0.00 | 0.66 | 0.00 | 90 | 1009.5 |
| 20260905063605 | 64 | 137 | 1.0 | 2.0 | 0.00 | 0.66 | 0.00 | 90 | 1009.6 |
| 20260905063105 | 64 | 142 | 1.0 | 3.0 | 0.00 | 0.66 | 0.00 | 90 | 1009.6 |
| 20260905062605 | 64 | 142 | 1.0 | 3.0 | 0.00 | 0.66 | 0.00 | 90 | 1009.7 |
| 20260905062105 | 64 | 143 | 1.0 | 3.0 | 0.00 | 0.66 | 0.00 | 90 | 1009.8 |
| 20260905061605 | 64 | 137 | 0.0 | 3.0 | 0.00 | 0.66 | 0.00 | 90 | 1009.8 |
| 20260905061105 | 65 | 146 | 1.0 | 2.0 | 0.00 | 0.66 | 0.00 | 90 | 1009.8 |
| 20260905060605 | 65 | 143 | 1.0 | 3.0 | 0.00 | 0.66 | 0.00 | 90 | 1009.9 |
| 20260905060105 | 65 | 142 | 1.0 | 3.0 | 0.00 | 0.66 | 0.00 | 90 | 1010.0 |
| 20260905055105 | 65 | 141 | 1.0 | 5.0 | 0.00 | 0.66 | 0.00 | 90 | 1010.1 |
| 20260905054605 | 65 | 144 | 0.0 | 2.0 | 0.00 | 0.66 | 0.00 | 90 | 1010.1 |
| 20260905053605 | 64 | 140 | 0.0 | 3.0 | 0.00 | 0.66 | 0.00 | 90 | 1010.0 |
| 20260905053105 | 64 | 242 | 1.0 | 3.0 | 0.00 | 0.66 | 0.00 | 91 | 1010.1 |
| 20260905052604 | 64 | 193 | 1.0 | 3.0 | 0.00 | 0.66 | 0.00 | 91 | 1010.2 |
| 20260905051605 | 64 | 142 | 0.0 | 1.0 | 0.00 | 0.66 | 0.00 | 92 | 1010.3 |
| 20260905050604 | 64 | 214 | 1.0 | 3.0 | 0.00 | 0.66 | 0.00 | 93 | 1010.4 |
| 20260905050105 | 64 | 222 | 1.0 | 2.0 | 0.00 | 0.66 | 0.00 | 93 | 1010.4 |
| 20260905045605 | 64 | 222 | 0.0 | 2.0 | 0.00 | 0.66 | 0.00 | 93 | 1010.5 |
| 20260905045104 | 64 | 222 | 0.0 | 1.0 | 0.00 | 0.66 | 0.00 | 93 | 1010.5 |
| 20260905044105 | 64 | 222 | 1.0 | 2.0 | 0.00 | 0.66 | 0.00 | 93 | 1010.6 |
| 20260905043604 | 64 | 222 | 0.0 | 1.0 | 0.00 | 0.66 | 0.00 | 93 | 1010.6 |
| 20260905043105 | 64 | 222 | 0.0 | 2.0 | 0.00 | 0.66 | 0.00 | 94 | 1010.6 |
| 20260905042604 | 64 | 222 | 1.0 | 2.0 | 0.00 | 0.66 | 0.00 | 94 | 1010.7 |
| 20260905042105 | 64 | 222 | 0.0 | 0.0 | 0.00 | 0.66 | 0.00 | 94 | 1010.6 |
| 20260905041605 | 64 | 222 | 0.0 | 2.0 | 0.00 | 0.66 | 0.00 | 94 | 1010.7 |
| 20260905041104 | 64 | 220 | 0.0 | 2.0 | 0.00 | 0.66 | 0.00 | 94 | 1010.7 |
| 20260905040605 | 64 | 220 | 0.0 | 1.0 | 0.00 | 0.66 | 0.00 | 94 | 1010.7 |
| 20260905040104 | 64 | 220 | 0.0 | 1.0 | 0.00 | 0.66 | 0.00 | 94 | 1010.7 |
| 20260905035605 | 64 | 220 | 0.0 | 1.0 | 0.00 | 0.66 | 0.66 | 94 | 1010.7 |
| 20260905034605 | 64 | 220 | 0.0 | 0.0 | 0.00 | 0.66 | 0.66 | 94 | 1010.6 |
| 20260905033604 | 64 | 220 | 0.0 | 0.0 | 0.00 | 0.66 | 0.66 | 94 | 1010.6 |
| 20260905033104 | 64 | 220 | 0.0 | 0.0 | 0.00 | 0.66 | 0.66 | 94 | 1010.6 |
| 20260905032605 | 64 | 220 | 0.0 | 0.0 | 0.00 | 0.66 | 0.66 | 94 | 1010.6 |
| 20260905032105 | 64 | 220 | 0.0 | 0.0 | 0.00 | 0.66 | 0.66 | 94 | 1010.6 |
| 20260905031604 | 65 | 220 | 0.0 | 0.0 | 0.00 | 0.66 | 0.66 | 94 | 1010.6 |
| 20260905031105 | 65 | 220 | 0.0 | 0.0 | 0.00 | 0.66 | 0.66 | 94 | 1010.6 |
| 20260905030604 | 65 | 220 | 0.0 | 0.0 | 0.00 | 0.66 | 0.66 | 94 | 1010.6 |
| 20260905025604 | 65 | 220 | 0.0 | 0.0 | 0.00 | 0.66 | 0.66 | 94 | 1010.5 |
| 20260905025104 | 65 | 220 | 0.0 | 0.0 | 0.00 | 0.66 | 0.66 | 94 | 1010.5 |
| 20260905024605 | 65 | 220 | 0.0 | 0.0 | 0.00 | 0.66 | 0.66 | 93 | 1010.4 |
| 20260905024104 | 65 | 220 | 0.0 | 0.0 | 0.00 | 0.66 | 0.66 | 93 | 1010.4 |
| 20260905023605 | 65 | 220 | 0.0 | 0.0 | 0.00 | 0.66 | 0.66 | 93 | 1010.4 |
| 20260905023104 | 65 | 220 | 0.0 | 0.0 | 0.00 | 0.66 | 0.66 | 93 | 1010.6 |
| 20260905022605 | 65 | 220 | 0.0 | 0.0 | 0.00 | 0.66 | 0.66 | 93 | 1010.6 |
| 20260905022105 | 65 | 220 | 0.0 | 0.0 | 0.00 | 0.66 | 0.66 | 93 | 1010.6 |
| 20260905021105 | 65 | 220 | 0.0 | 0.0 | 0.00 | 0.66 | 0.66 | 93 | 1010.5 |
| 20260905020605 | 65 | 220 | 0.0 | 0.0 | 0.00 | 0.66 | 0.66 | 93 | 1010.6 |
| 20260905020105 | 66 | 220 | 0.0 | 0.0 | 0.00 | 0.66 | 0.66 | 93 | 1010.6 |
| 20260905015605 | 66 | 220 | 0.0 | 0.0 | 0.00 | 0.66 | 0.66 | 93 | 1010.6 |
| 20260905014605 | 66 | 220 | 0.0 | 0.0 | 0.00 | 0.66 | 0.66 | 92 | 1010.6 |
| 20260905014104 | 66 | 220 | 0.0 | 0.0 | 0.00 | 0.66 | 0.66 | 92 | 1010.5 |
| 20260905013604 | 66 | 220 | 0.0 | 0.0 | 0.00 | 0.66 | 0.66 | 92 | 1010.5 |
| 20260905012604 | 66 | 220 | 0.0 | 0.0 | 0.00 | 0.66 | 0.66 | 91 | 1010.6 |
| 20260905012104 | 66 | 220 | 0.0 | 0.0 | 0.00 | 0.66 | 0.66 | 91 | 1010.5 |
| 20260905011605 | 66 | 220 | 0.0 | 0.0 | 0.00 | 0.66 | 0.66 | 91 | 1010.6 |
| 20260905010604 | 66 | 220 | 0.0 | 0.0 | 0.00 | 0.66 | 0.66 | 91 | 1010.5 |
| 20260905005605 | 67 | 220 | 0.0 | 0.0 | 0.00 | 0.66 | 0.66 | 90 | 1010.6 |
| 20260905005105 | 67 | 219 | 0.0 | 0.0 | 0.00 | 0.66 | 0.66 | 90 | 1010.6 |
| 20260905004606 | 67 | 219 | 0.0 | 0.0 | 0.00 | 0.66 | 0.66 | 90 | 1010.7 |
| 20260905004105 | 67 | 219 | 0.0 | 0.0 | 0.00 | 0.66 | 0.66 | 89 | 1010.6 |
| 20260905003104 | 68 | 219 | 0.0 | 0.0 | 0.00 | 0.66 | 0.66 | 89 | 1010.6 |
| 20260905002604 | 68 | 219 | 0.0 | 0.0 | 0.00 | 0.66 | 0.66 | 88 | 1010.6 |
| 20260905002104 | 68 | 219 | 0.0 | 0.0 | 0.00 | 0.66 | 0.66 | 87 | 1010.5 |
| 20260905001104 | 69 | 219 | 0.0 | 0.0 | 0.00 | 0.66 | 0.66 | 87 | 1010.4 |
| 20260905000605 | 70 | 219 | 0.0 | 0.0 | 0.00 | 0.66 | 0.66 | 86 | 1010.4 |
| 20260905000104 | 70 | 219 | 0.0 | 0.0 | 0.00 | 0.66 | 0.66 | 86 | 1010.3 |
| 20260904235605 | 70 | 219 | 0.0 | 0.0 | 0.00 | 0.66 | 0.66 | 86 | 1010.3 |
| 20260904235104 | 70 | 220 | 0.0 | 0.0 | 0.00 | 0.66 | 0.66 | 85 | 1010.3 |
| 20260904234604 | 71 | 220 | 0.0 | 0.0 | 0.00 | 0.66 | 0.66 | 85 | 1010.2 |
| 20260904234105 | 71 | 220 | 0.0 | 0.0 | 0.00 | 0.66 | 0.66 | 85 | 1010.2 |
| 20260904233604 | 71 | 219 | 0.0 | 0.0 | 0.00 | 0.66 | 0.66 | 85 | 1010.2 |
| 20260904232604 | 71 | 220 | 0.0 | 0.0 | 0.00 | 0.66 | 0.66 | 84 | 1010.2 |
| 20260904232105 | 72 | 220 | 0.0 | 0.0 | 0.00 | 0.66 | 0.66 | 84 | 1010.2 |